Wetbulb
69.10 70.35 70.51 70.90 70.16 70.55 70.66 71.14 71.48 71.81 73.59 72.28 71.89 72.26 72.38 72.32 73.00 74.42 75.05 75.98 76.18 75.87 76.23 74.76 74.02 73.79 73.98 72.72 73.68 72.31 71.76 71.75 72.01 71.00 70.07 70.98 72.16 72.64 72.47 72.69 72.38 72.67 72.34
67.80 69.24 70.02 70.94 70.89 70.71 70.82 71.71 72.00 73.38 73.17 72.72 72.20 72.48 72.69 72.54 73.77 73.20 74.65 75.29 75.11 75.49 75.57 75.23 74.37 74.52 73.54 73.45 73.22 72.42 71.47 72.02 72.50 69.99 68.40 66.22 67.25 71.68 72.92 73.15 72.69 72.91 73.38
66.80 68.38 69.09 69.78 71.55 71.31 71.77 72.26 72.88 73.58 73.19 73.64 73.76 73.61 74.11 74.08 74.08 73.50 75.23 76.16 76.36 76.43 75.58 75.67 74.72 74.43 74.17 73.36 73.70 73.36 72.97 71.04 72.12 71.66 68.44 64.17 63.09 66.33 70.10 71.43 71.81 71.16 72.76
67.27 68.21 68.68 68.83 70.56 72.16 73.19 73.20 73.43 74.32 73.70 74.39 74.13 72.98 71.22 70.20 71.27 72.44 73.59 74.94 76.62 76.26 75.57 75.06 75.09 74.35 74.52 74.11 74.12 74.25 73.11 72.80 70.91 71.70 72.45 69.58 68.77 65.43 63.53 67.72 69.86 71.63 72.10
66.77 67.55 68.47 69.13 70.55 72.85 73.93 74.50 73.99 74.93 74.29 74.07 74.50 73.13 72.63 71.63 72.53 73.31 73.50 73.32 75.65 76.52 76.80 75.94 76.28 75.55 74.99 74.54 74.78 74.23 73.32 73.47 71.85 71.30 69.90 69.00 68.96 67.45 65.22 64.53 65.45 70.11 71.52
66.02 67.69 68.79 69.43 69.60 72.44 73.74 74.92 74.82 74.94 74.90 74.74 74.87 74.89 73.18 72.92 72.69 72.62 73.20 72.78 73.91 75.41 76.29 76.06 76.54 76.59 76.07 75.08 75.38 74.88 74.42 73.65 73.53 73.14 72.45 71.35 69.73 67.83 66.16 64.49 65.59 65.69 68.52
65.25 65.95 66.90 67.68 68.53 70.27 72.20 74.38 74.54 74.63 75.65 75.59 75.18 74.77 75.55 74.75 72.60 73.76 73.79 72.30 72.65 73.81 74.26 75.38 75.65 76.03 76.29 76.54 76.20 75.21 74.70 74.36 73.82 73.42 73.18 72.77 71.53 70.34 68.42 67.00 66.23 66.48 68.37
65.57 65.59 66.64 67.37 67.95 69.53 71.06 73.41 74.19 74.13 75.33 76.48 75.77 75.92 75.37 75.80 76.08 75.33 73.83 73.85 73.49 74.36 76.23 75.85 75.87 76.38 76.73 76.55 76.21 75.56 75.24 74.93 74.67 74.06 74.07 73.49 73.00 71.53 69.14 67.18 65.04 63.46 65.93
66.01 66.40 67.23 67.77 68.04 69.38 70.10 72.77 74.03 74.57 75.42 75.13 76.49 76.47 76.17 75.63 75.00 74.76 74.51 74.60 75.04 75.45 75.10 76.18 75.85 76.19 76.78 76.88 76.31 76.28 75.31 75.38 75.06 74.49 73.63 73.17 73.11 71.82 69.91 67.38 67.20 65.85 62.33
62.16 66.84 67.76 68.24 68.70 70.01 70.44 73.42 74.60 74.73 75.32 75.73 76.04 76.50 76.63 76.15 75.75 76.13 76.53 75.62 74.83 75.68 76.86 76.25 76.29 76.48 76.83 77.68 77.26 76.63 76.11 74.40 73.13 73.28 72.48 72.40 72.35 71.79 70.11 66.44 66.56 67.81 66.64
61.32 62.46 67.60 68.37 69.83 70.50 70.59 72.77 74.36 74.70 75.07 75.53 76.18 76.09 76.15 76.78 76.75 76.10 76.12 76.07 76.05 75.43 75.82 75.97 76.43 76.40 75.94 77.39 77.24 75.45 75.38 72.48 68.79 67.43 70.69 72.58 71.91 70.65 71.89 70.63 70.11 68.44 68.10
61.17 63.91 64.73 67.99 68.09 69.02 70.56 71.11 74.12 74.54 75.25 75.18 75.95 76.09 76.26 76.26 76.59 76.19 75.82 76.11 75.64 75.66 75.80 76.96 75.10 74.77 76.00 77.31 75.95 74.95 75.52 71.24 69.50 70.65 70.41 72.68 73.36 70.47 71.01 71.03 68.73 68.96 69.25
60.15 62.74 65.30 69.02 69.53 69.30 69.36 71.45 73.22 74.12 74.82 74.68 75.00 75.02 75.43 75.68 74.77 75.38 75.59 76.19 75.28 75.21 76.01 75.26 74.20 75.80 76.25 76.32 75.99 75.26 74.89 71.73 71.58 72.06 72.50 73.89 72.83 70.91 70.13 69.84 68.97 69.11 70.71
61.51 61.81 64.33 66.89 69.55 72.08 72.26 71.62 71.93 73.30 74.44 74.82 73.90 72.97 74.61 74.40 73.41 73.08 73.47 73.32 74.06 74.87 75.40 74.79 74.90 76.10 76.35 75.75 75.51 75.23 74.40 72.97 72.20 73.77 73.05 73.79 73.61 72.90 71.00 70.87 70.22 71.95 71.92
61.92 63.86 65.61 68.98 71.16 72.66 72.71 72.54 73.21 72.65 74.19 73.34 72.60 73.36 73.15 72.88 73.41 73.13 72.79 73.71 74.33 75.08 75.99 76.15 75.87 75.81 75.92 76.93 73.17 73.32 73.39 73.65 73.58 74.00 74.13 74.33 74.06 72.64 73.15 72.79 71.60 73.03 71.65
63.14 65.95 70.14 71.33 73.00 72.40 72.29 72.55 72.07 74.69 75.20 72.88 72.57 72.69 72.32 71.50 72.51 75.63 76.76 76.85 76.42 76.37 76.24 74.92 74.88 74.08 75.97 70.74 70.86 70.78 70.27 70.46 71.02 71.85 73.11 73.98 73.95 73.63 70.85 70.46 70.48 72.41 71.70
63.96 70.07 71.18 71.80 73.08 72.88 73.02 73.15 73.73 75.80 74.95 73.81 73.02 72.87 71.99 73.78 76.48 76.87 75.95 73.09 72.24 71.33 70.19 68.93 68.95 68.70 70.71 70.00 69.69 70.20 68.17 68.13 68.06 69.08 70.09 71.94 74.10 70.63 71.81 71.06 69.11 69.06 68.48
67.47 70.72 71.63 72.09 73.40 73.82 73.37 75.06 75.57 75.10 74.32 73.06 72.73 72.86 75.90 76.60 75.42 73.30 72.39 70.40 68.71 68.08 67.92 67.61 67.56 67.55 68.73 68.53 68.52 68.96 65.64 64.71 64.97 64.85 65.48 65.61 65.94 68.75 71.25 70.87 70.44 69.95 70.50
68.55 71.70 72.61 73.18 74.30 74.23 74.57 75.15 74.80 74.23 73.07 72.23 73.88 76.87 76.44 74.30 73.53 70.48 68.21 67.69 66.91 66.83 66.98 67.00 67.71 66.10 66.32 66.18 66.39 66.53 64.18 64.11 63.15 63.82 63.36 63.29 62.38 63.47 64.31 66.38 68.24 68.68 68.61
66.40 71.64 72.59 74.12 74.56 74.79 75.64 74.17 73.65 72.73 71.83 73.94 76.34 75.89 74.15 71.89 70.65 68.71 67.39 67.64 67.62 67.88 69.24 66.92 67.25 67.01 67.13 65.59 64.97 64.31 63.41 62.77 62.64 63.01 62.75 63.39 61.28 60.14 60.66 60.25 61.58 62.99 66.60
66.94 66.78 71.83 73.50 73.97 75.10 74.78 73.85 73.12 72.53 75.92 75.25 74.21 72.80 71.78 69.90 68.29 67.98 68.52 68.41 68.45 68.78 68.29 68.48 67.85 67.85 67.69 67.51 63.96 63.01 63.08 63.70 62.86 62.71 62.29 62.15 58.58 56.81 56.56 57.33 57.90 59.77 62.45
66.16 66.78 70.45 70.79 73.11 74.58 74.25 72.92 72.70 73.76 73.38 72.77 71.29 69.86 68.83 68.76 70.22 68.58 67.93 68.34 68.90 68.21 68.57 66.94 66.31 64.38 63.96 61.75 60.05 59.10 59.72 61.64 61.06 62.15 62.71 59.18 56.02 54.80 55.29 56.10 57.79 58.47 59.55
68.77 70.34 71.20 71.46 71.45 69.66 70.98 71.68 72.28 73.21 71.28 70.44 69.09 69.55 69.16 68.57 67.81 66.80 67.22 68.68 68.08 66.73 65.53 62.27 59.55 59.55 61.79 61.29 59.61 59.42 59.18 59.72 58.86 60.28 61.19 57.18 55.30 54.41 55.83 56.36 56.79 57.44 56.47
62.81 65.78 67.03 66.97 65.54 66.29 64.29 64.04 61.48 68.49 70.43 69.85 69.52 68.11 67.00 67.09 68.49 69.08 68.45 66.16 64.80 63.81 61.84 61.21 59.70 59.68 60.33 60.73 61.25 60.58 58.78 59.36 58.46 58.72 55.16 56.79 56.65 56.52 56.75 56.89 57.28 57.04 56.55
68.23 67.07 64.99 64.00 62.45 61.19 61.85 64.47 62.46 64.76 68.28 68.63 67.09 66.50 66.68 66.21 66.84 67.76 67.86 66.17 65.85 62.47 60.69 59.65 59.55 59.08 58.46 52.81 49.15 50.68 51.92 50.80 51.62 49.95 52.16 52.59 53.04 54.21 55.42 56.08 56.93 57.43 57.21
69.05 65.70 64.78 64.48 63.42 61.89 62.01 62.14 62.67 62.72 67.81 65.73 66.05 62.93 61.62 63.29 63.28 61.33 60.94 59.09 55.19 53.89 51.73 50.19 50.75 54.37 49.58 47.42 46.37 45.22 45.79 47.04 47.91 50.25 51.33 52.61 53.51 54.04 55.12 55.96 56.68 57.61 58.26
MSLP
1010.11 1010.44 1010.85 1011.35 1012.16 1012.76 1013.35 1013.72 1014.36 1014.67 1015.07 1015.53 1015.87 1016.09 1016.13 1015.95 1015.99 1016.04 1016.23 1016.46 1016.70 1016.91 1017.19 1017.37 1017.53 1017.59 1017.74 1017.78 1018.02 1018.05 1018.13 1018.04 1017.88 1018.31 1017.73 1016.88 1016.59 1016.76 1016.85 1016.63 1016.94 1016.87 1017.01
1009.64 1010.02 1010.45 1010.93 1011.68 1012.33 1012.87 1013.59 1014.16 1014.63 1014.93 1015.23 1015.47 1015.71 1015.68 1015.48 1015.37 1015.71 1015.84 1016.00 1016.37 1016.50 1016.79 1016.98 1017.46 1017.36 1017.62 1017.67 1017.67 1017.76 1018.06 1017.92 1017.51 1017.97 1018.01 1017.47 1016.69 1016.46 1016.55 1016.56 1016.48 1016.28 1016.38
1008.71 1009.43 1009.85 1010.38 1011.15 1011.87 1012.40 1012.89 1013.68 1014.28 1014.56 1014.92 1015.18 1015.40 1015.52 1015.31 1015.50 1015.71 1015.90 1015.91 1015.92 1016.15 1016.44 1016.71 1016.91 1017.19 1017.31 1017.43 1017.41 1017.37 1017.49 1017.58 1017.03 1017.16 1017.81 1017.92 1017.70 1017.10 1016.31 1016.32 1016.33 1016.39 1016.27
1007.38 1008.19 1008.92 1009.51 1010.29 1011.00 1011.66 1012.21 1012.88 1013.60 1014.15 1014.51 1014.93 1015.23 1015.28 1015.55 1015.43 1015.34 1015.37 1015.30 1015.37 1015.80 1015.97 1016.17 1016.31 1016.63 1016.75 1017.00 1016.99 1016.92 1016.93 1016.99 1017.05 1016.84 1016.75 1017.26 1017.36 1017.37 1017.36 1016.58 1016.40 1016.09 1015.69
1005.87 1006.84 1007.49 1008.04 1008.80 1009.92 1010.75 1011.50 1012.27 1012.92 1013.48 1014.08 1014.52 1014.88 1015.07 1015.10 1015.00 1015.10 1015.07 1015.33 1015.47 1015.41 1015.38 1015.54 1015.73 1016.07 1016.33 1016.40 1016.55 1016.56 1016.62 1016.51 1016.72 1016.74 1016.79 1016.86 1016.93 1017.07 1017.39 1016.92 1016.16 1015.43 1015.07
1004.75 1005.52 1006.22 1007.04 1007.67 1008.58 1009.56 1010.55 1011.48 1012.16 1012.77 1013.45 1014.01 1014.57 1014.84 1014.99 1015.16 1015.18 1015.19 1015.08 1015.06 1015.05 1014.84 1014.87 1015.20 1015.48 1015.81 1015.86 1016.00 1016.10 1016.12 1016.14 1016.08 1016.09 1016.27 1016.38 1016.51 1016.65 1016.81 1016.77 1016.10 1015.63 1014.89
1003.72 1004.53 1005.32 1005.95 1006.71 1007.61 1008.53 1009.60 1010.63 1011.41 1012.04 1012.74 1013.40 1013.90 1014.30 1014.47 1014.67 1014.84 1014.91 1015.02 1014.94 1014.86 1014.70 1014.73 1014.88 1014.99 1014.98 1015.23 1015.32 1015.52 1015.64 1015.64 1015.70 1015.70 1015.77 1015.57 1015.70 1015.68 1015.75 1015.92 1015.83 1015.12 1014.62
1002.53 1003.22 1003.86 1004.69 1005.55 1006.52 1007.55 1008.56 1009.72 1010.54 1011.23 1011.88 1012.53 1013.11 1013.60 1014.03 1014.17 1014.28 1014.32 1014.44 1014.45 1014.51 1014.26 1014.27 1014.40 1014.53 1014.40 1014.44 1014.77 1014.98 1015.12 1015.16 1015.20 1015.19 1015.31 1015.19 1015.00 1014.99 1015.05 1015.26 1015.28 1015.03 1014.75
1001.44 1002.18 1002.97 1003.77 1004.71 1005.69 1006.51 1007.53 1008.79 1009.67 1010.37 1011.04 1011.78 1012.44 1012.90 1013.31 1013.63 1013.76 1013.89 1013.95 1014.00 1014.01 1014.17 1014.12 1014.24 1014.34 1014.45 1014.56 1014.52 1014.67 1014.78 1014.77 1014.83 1014.94 1015.04 1014.99 1014.83 1014.63 1014.55 1014.56 1014.72 1014.85 1015.00
1000.79 1001.61 1002.40 1003.12 1003.87 1004.77 1005.73 1006.88 1007.89 1008.74 1009.48 1010.27 1010.98 1011.66 1012.22 1012.65 1013.04 1013.34 1013.54 1013.57 1013.55 1013.73 1013.85 1013.95 1014.04 1014.11 1014.20 1014.30 1014.28 1014.31 1014.06 1014.28 1014.85 1015.25 1014.72 1014.39 1014.52 1014.37 1014.47 1014.45 1014.49 1014.44 1014.70
1000.55 1001.09 1002.09 1002.64 1003.38 1004.19 1005.23 1006.27 1007.32 1008.28 1009.04 1009.57 1010.18 1010.93 1011.58 1012.09 1012.51 1012.88 1013.12 1013.26 1013.34 1013.40 1013.55 1013.73 1013.80 1013.89 1013.89 1013.87 1013.84 1013.78 1013.55 1014.67 1014.78 1014.34 1014.07 1014.11 1014.04 1014.19 1014.22 1014.16 1014.05 1014.10 1014.18
1000.03 1000.77 1001.70 1002.31 1003.25 1004.02 1004.82 1005.69 1006.69 1007.49 1008.12 1008.69 1009.39 1010.07 1010.73 1011.34 1011.85 1012.24 1012.39 1012.61 1012.80 1012.90 1013.06 1013.28 1013.40 1013.49 1013.55 1013.52 1013.42 1013.29 1013.30 1014.11 1014.13 1013.82 1013.56 1013.68 1013.40 1013.70 1013.54 1013.74 1013.87 1013.67 1013.48
1000.00 1000.52 1001.56 1002.35 1003.01 1003.66 1004.42 1005.18 1005.91 1006.68 1007.40 1008.09 1008.83 1009.53 1010.10 1010.62 1011.14 1011.53 1011.82 1012.05 1012.18 1012.33 1012.55 1012.73 1012.91 1013.04 1012.97 1012.97 1012.98 1012.96 1012.88 1013.10 1013.20 1013.07 1013.03 1013.02 1012.70 1012.63 1012.91 1012.95 1013.10 1013.00 1012.85
999.87 1000.56 1001.47 1002.35 1002.92 1003.53 1004.03 1004.70 1005.36 1006.09 1006.85 1007.59 1008.23 1008.83 1009.35 1009.81 1010.19 1010.47 1010.95 1011.29 1011.64 1011.95 1012.35 1012.54 1012.65 1012.72 1012.69 1012.58 1012.44 1012.32 1012.24 1012.40 1012.59 1012.63 1012.29 1012.02 1011.90 1011.79 1012.13 1012.24 1012.19 1012.03 1012.15
999.82 1000.25 1001.09 1002.17 1002.90 1003.66 1003.95 1004.39 1004.91 1005.53 1006.28 1007.10 1007.75 1008.32 1008.79 1009.29 1009.54 1010.14 1010.81 1011.13 1011.35 1011.56 1011.83 1012.10 1012.28 1012.35 1012.37 1012.32 1012.44 1012.42 1012.19 1011.96 1011.78 1011.56 1011.44 1011.26 1011.05 1010.79 1010.96 1011.23 1011.14 1011.12 1011.38
999.32 1000.07 1000.78 1001.53 1002.45 1003.33 1004.08 1004.71 1005.08 1005.55 1006.05 1006.71 1007.43 1008.11 1008.81 1009.37 1009.77 1010.05 1010.32 1010.77 1011.13 1011.48 1011.85 1012.30 1012.42 1012.54 1012.44 1012.32 1012.28 1012.33 1012.36 1012.17 1011.91 1011.65 1011.24 1010.88 1010.47 1010.20 1010.17 1010.19 1010.15 1010.19 1010.58
998.67 999.61 1000.17 1000.91 1001.93 1002.57 1003.74 1004.70 1005.33 1005.71 1006.14 1006.87 1007.48 1007.98 1008.64 1009.47 1009.82 1010.05 1010.60 1011.16 1011.23 1011.34 1011.57 1011.71 1011.84 1012.09 1012.10 1012.11 1012.13 1011.94 1011.98 1012.05 1011.92 1011.58 1011.11 1010.87 1010.46 1010.15 1009.88 1009.51 1009.52 1009.48 1009.63
998.03 998.84 999.78 1000.58 1001.43 1002.40 1003.66 1004.62 1005.35 1006.21 1007.12 1007.84 1008.50 1008.99 1009.33 1009.58 1009.95 1010.85 1011.23 1011.47 1011.70 1011.81 1011.80 1011.86 1011.73 1011.62 1011.79 1011.89 1011.89 1011.98 1011.95 1011.65 1011.54 1011.41 1011.01 1010.62 1010.25 1010.02 1009.83 1009.46 1009.26 1009.20 1009.05
996.34 997.27 998.20 999.37 1000.53 1001.43 1002.90 1004.76 1005.34 1005.95 1006.98 1007.82 1008.34 1009.08 1009.95 1010.61 1010.97 1011.22 1011.46 1011.75 1011.96 1012.22 1012.13 1012.07 1012.25 1012.16 1011.83 1011.41 1011.59 1011.65 1011.91 1011.74 1011.22 1010.93 1010.86 1010.61 1010.44 1010.06 1009.61 1009.55 1009.51 1009.20 1008.67
995.79 997.25 998.22 999.69 1000.74 1001.29 1002.52 1004.20 1005.85 1006.50 1006.82 1007.33 1008.41 1009.34 1010.23 1011.44 1011.60 1011.87 1012.06 1011.96 1011.97 1012.01 1011.91 1011.61 1011.46 1011.72 1011.48 1010.93 1010.98 1011.07 1011.32 1011.48 1011.24 1010.75 1010.37 1010.24 1010.34 1010.48 1010.07 1010.06 1009.81 1009.74 1009.24
996.17 997.31 998.58 999.43 1000.29 1001.71 1003.25 1004.91 1006.77 1006.60 1007.23 1007.40 1007.74 1008.88 1009.86 1010.67 1011.13 1011.46 1011.49 1011.75 1012.07 1011.94 1012.11 1012.01 1011.00 1010.89 1011.07 1010.96 1010.67 1010.68 1011.09 1010.96 1010.80 1010.66 1010.57 1010.38 1010.37 1010.37 1010.33 1009.99 1010.01 1009.36 1008.86
996.07 997.16 999.51 1001.38 1002.19 1003.15 1004.02 1005.51 1007.20 1010.09 1008.46 1008.24 1007.62 1008.88 1009.85 1010.55 1011.20 1011.78 1011.91 1011.94 1012.11 1011.79 1012.07 1011.35 1010.99 1010.76 1010.97 1010.66 1010.27 1010.40 1010.60 1010.65 1010.87 1010.72 1010.50 1010.41 1010.20 1009.89 1009.73 1009.56 1009.20 1008.83 1008.67
998.14 999.52 1000.80 1002.88 1003.96 1005.22 1006.49 1008.02 1009.61 1009.84 1008.57 1009.09 1009.67 1008.95 1010.16 1010.70 1010.78 1011.15 1011.25 1011.47 1011.77 1011.82 1011.77 1011.33 1010.83 1010.55 1010.49 1010.35 1010.09 1010.10 1010.20 1010.13 1010.18 1010.04 1009.95 1009.88 1009.72 1009.47 1009.20 1008.85 1008.47 1008.14 1007.77
1000.23 1000.74 1002.28 1004.35 1005.89 1006.82 1007.18 1008.49 1009.44 1007.00 1010.50 1011.44 1010.00 1010.60 1010.80 1010.63 1010.94 1010.67 1011.12 1011.43 1011.17 1011.34 1011.34 1011.12 1010.70 1010.51 1010.40 1010.23 1009.76 1010.11 1010.57 1010.37 1010.09 1009.86 1009.76 1009.58 1009.43 1009.17 1008.96 1008.54 1007.96 1007.45 1007.00
1002.04 1002.62 1004.16 1005.89 1007.16 1007.63 1007.27 1006.44 1006.46 1008.46 1011.63 1012.70 1011.24 1011.18 1010.62 1010.84 1011.45 1011.01 1010.71 1010.69 1010.86 1010.97 1010.92 1011.07 1010.81 1010.57 1010.61 1011.63 1011.23 1011.07 1011.12 1011.02 1010.71 1010.32 1009.82 1009.57 1009.24 1008.82 1008.42 1007.88 1007.31 1006.81 1006.36
1003.38 1004.60 1006.00 1006.92 1007.61 1008.19 1007.93 1007.08 1007.00 1008.21 1009.94 1010.37 1011.19 1010.97 1011.08 1011.16 1010.83 1010.92 1010.98 1010.40 1010.66 1010.79 1010.46 1010.72 1011.09 1011.24 1011.53 1011.44 1011.25 1011.27 1011.13 1010.67 1010.21 1010.00 1009.74 1009.25 1008.67 1008.20 1007.64 1007.10 1006.55 1006.06 1005.61
Wind_Speed
13 13 15 11 15 11 9 8 8 8 5 3 3 2 4 3 2 4 7 7 6 7 6 4 4 4 4 4 4 3 5 4 3 2 5 6 7 10 8 7 6 9 12
14 13 13 14 16 15 13 9 8 8 6 4 3 3 3 4 3 4 6 8 7 7 7 5 4 4 3 5 5 4 2 3 4 4 1 4 5 1 8 7 7 11 8
15 17 13 13 17 17 16 15 11 10 7 7 4 3 1 1 2 2 3 7 7 7 6 6 6 5 5 4 5 5 5 4 3 4 3 2 3 3 1 6 6 8 9
17 18 17 14 16 18 17 16 15 14 9 8 5 7 4 4 3 4 5 9 6 7 7 7 7 6 5 5 5 4 5 3 5 3 2 3 4 3 4 2 4 9 7
20 21 20 19 18 19 18 17 16 15 14 12 7 5 4 4 3 3 5 6 6 8 9 8 8 7 5 6 6 5 4 4 3 4 2 1 2 3 4 5 5 2 4
21 22 21 20 17 17 19 18 18 16 15 13 8 7 7 6 3 3 3 4 4 7 8 9 7 7 6 6 5 6 5 5 5 4 4 3 3 2 3 3 4 5 4
20 19 21 19 18 19 21 18 19 16 16 14 11 9 8 8 7 5 2 4 3 3 8 6 6 5 6 6 6 6 6 5 4 5 4 4 4 3 3 3 3 4 1
20 22 22 19 20 20 21 20 20 17 16 14 14 10 8 5 5 5 4 4 4 2 1 4 5 7 7 6 6 4 5 6 6 7 5 4 4 3 3 4 4 3 2
20 22 20 18 20 18 21 20 20 17 17 17 10 11 9 8 6 7 6 5 5 4 5 6 6 5 4 5 5 4 5 5 5 6 5 3 3 2 3 3 4 4 1
9 19 17 16 19 18 18 17 20 19 18 15 13 9 9 8 7 6 6 6 6 4 1 1 3 3 4 5 6 4 6 4 11 18 6 3 2 1 3 4 3 2 3
10 11 14 12 17 17 17 15 17 17 15 14 14 12 10 8 8 6 6 6 4 5 4 5 5 4 6 6 5 6 6 8 9 6 14 8 4 3 3 4 3 4 4
12 10 10 11 12 14 17 16 17 17 16 14 15 14 12 11 10 9 8 7 7 6 6 5 5 6 6 6 6 7 5 7 8 12 10 11 5 6 5 4 5 4 4
11 11 9 10 10 10 13 15 16 16 16 14 12 13 12 12 9 9 8 7 7 7 6 6 6 6 6 5 6 6 6 5 7 8 12 13 7 5 5 6 6 5 5
14 11 10 10 9 8 10 14 15 15 15 14 13 10 11 10 9 8 7 7 4 6 6 5 5 4 4 6 6 6 5 6 7 9 8 7 7 7 7 7 8 7 6
11 14 13 11 9 8 8 10 11 9 14 13 11 10 9 6 7 7 7 6 5 4 4 3 3 4 4 3 3 4 5 5 6 7 7 7 8 11 10 5 6 7 6
12 12 14 15 13 11 8 8 8 8 12 9 8 9 9 8 7 7 7 6 4 4 5 5 4 4 3 1 1 2 4 6 6 6 7 7 9 11 14 14 16 11 8
14 17 18 17 14 14 10 8 7 8 12 12 11 11 9 8 7 7 7 5 6 5 4 2 1 3 4 4 5 3 2 5 6 7 6 8 9 8 7 8 11 11 14
15 17 15 15 15 13 9 7 10 9 8 8 8 7 7 7 8 7 7 5 3 3 2 3 4 3 4 6 7 7 5 5 6 7 8 7 8 10 10 9 6 6 7
21 22 21 19 19 19 14 10 9 11 9 8 7 7 7 7 7 7 7 4 3 0 2 3 4 3 6 8 10 7 5 6 7 6 7 6 6 7 9 6 8 8 7
16 18 18 16 17 18 17 14 10 9 8 8 8 9 8 5 6 5 4 2 2 3 4 4 4 7 8 10 11 7 4 6 5 7 7 6 4 7 10 6 5 7 7
11 11 18 20 17 16 15 13 7 9 8 12 11 10 8 8 8 7 4 4 3 4 5 6 5 5 7 8 12 12 4 5 4 4 4 3 9 8 8 7 6 6 6
11 14 17 14 15 15 15 13 9 7 5 10 12 9 7 3 4 4 0 1 5 4 7 5 4 2 3 1 5 9 1 2 1 4 3 1 6 9 9 7 9 12 10
23 22 23 20 19 18 13 14 10 3 7 10 3 8 6 5 5 5 5 3 5 5 5 4 3 4 4 3 8 6 4 4 3 3 3 5 8 10 10 13 14 15 9
22 24 26 20 17 19 19 19 17 18 16 4 7 1 3 2 3 3 4 4 4 4 5 5 4 5 4 5 3 1 4 6 4 3 4 6 9 10 10 11 12 9 8
21 22 22 18 14 6 4 8 16 17 4 9 5 4 2 3 5 5 4 4 6 3 2 4 3 4 3 4 2 4 5 4 4 5 3 3 3 5 8 8 9 9 8
19 17 17 14 11 10 7 5 7 14 17 7 2 3 3 5 3 3 5 5 1 7 7 9 1 8 8 3 9 9 8 9 5 2 4 6 7 8 8 8 9 9 10
Wind_Direction
173 171 166 164 151 151 147 160 139 160 145 158 164 213 232 194 196 172 179 185 183 190 189 204 219 234 249 255 229 198 220 272 221 216 291 273 225 205 208 223 218 214 210
165 177 175 163 163 165 165 162 165 170 163 162 192 192 205 224 183 180 181 187 191 192 197 190 201 223 245 276 246 226 237 251 199 209 220 307 325 236 205 209 213 216 214
178 177 184 175 169 170 173 173 176 176 173 178 198 232 243 73 142 189 178 204 199 194 186 187 197 217 218 239 243 227 219 250 277 189 173 353 268 334 114 214 215 237 218
179 177 182 182 174 178 178 178 177 174 186 188 191 185 188 185 207 187 201 208 191 187 207 204 202 207 214 239 241 236 224 220 264 324 236 176 176 229 314 326 237 232 225
179 180 185 185 185 175 178 178 179 177 184 198 195 202 189 208 229 227 233 190 190 194 210 207 204 210 212 228 236 255 241 237 227 224 273 299 243 220 211 268 280 301 240
183 181 183 185 187 174 176 175 178 185 182 189 194 200 202 216 237 270 176 179 188 212 217 210 198 205 213 221 232 251 247 250 255 249 244 227 236 248 224 248 273 259 272
181 182 185 185 187 175 179 174 179 182 183 184 193 193 203 211 213 217 210 202 226 236 240 198 204 208 211 214 221 232 242 253 247 250 252 239 243 208 199 196 260 244 261
181 186 186 185 185 177 176 176 178 182 182 176 187 196 194 199 209 204 204 218 235 175 237 183 197 231 227 228 230 230 234 232 244 249 239 248 245 233 194 188 181 291 200
181 187 184 181 182 176 178 173 176 179 180 188 173 186 192 191 202 219 217 221 217 232 207 198 203 228 237 250 258 248 257 247 248 240 235 249 264 253 190 193 192 157 211
144 181 182 173 180 175 174 164 172 176 179 176 185 182 184 190 198 204 223 215 224 235 260 257 214 241 260 266 265 259 251 283 20 337 289 253 247 287 216 179 227 183 175
130 134 175 173 172 169 170 162 168 171 173 174 179 180 188 184 189 204 219 225 220 219 223 234 237 250 263 262 264 259 268 75 84 287 279 268 221 236 219 230 221 205 185
149 152 141 160 163 166 172 167 169 170 174 178 177 182 185 192 193 202 210 210 218 221 227 228 226 250 254 255 267 273 266 142 184 222 256 275 217 215 215 215 235 234 229
146 142 130 135 149 159 159 165 164 171 173 176 168 181 184 188 188 195 207 199 206 213 215 205 231 247 253 251 263 262 269 221 206 236 245 250 247 227 208 207 221 227 227
153 142 136 139 142 148 151 158 165 163 171 172 175 165 178 170 186 194 188 198 209 210 211 227 238 268 266 268 262 270 274 244 232 236 247 246 234 235 219 219 221 225 238
156 155 148 145 133 132 133 146 153 152 157 160 163 173 157 137 161 146 142 138 127 151 162 188 263 265 262 274 311 308 308 305 282 265 255 251 247 243 234 237 241 211 224
164 158 148 145 143 146 148 138 143 140 154 157 154 133 125 127 137 132 131 147 132 61 77 68 48 17 354 143 184 300 315 310 313 311 303 283 263 256 256 247 239 230 222
164 159 161 158 157 153 149 152 146 133 122 135 135 134 133 141 140 133 114 117 110 109 101 63 28 313 300 217 230 233 260 302 304 302 305 312 312 298 270 267 258 247 230
158 168 159 159 155 144 139 140 133 121 120 117 121 127 132 125 117 120 111 114 93 107 167 269 272 273 290 274 266 266 275 283 282 287 288 294 304 303 300 291 272 251 242
174 174 170 161 154 154 141 139 133 131 126 137 142 127 113 125 113 120 132 142 124 305 261 280 290 312 287 266 257 259 276 286 285 283 294 298 323 348 13 5 314 293 272
160 163 171 152 145 153 146 133 133 135 147 144 110 113 121 123 112 128 142 161 156 214 231 242 268 272 275 274 265 237 228 256 267 288 283 286 327 18 28 14 352 336 311
158 157 156 162 156 139 131 117 108 153 139 128 119 113 126 139 156 161 163 183 212 239 274 273 270 274 278 293 297 302 243 242 253 258 289 15 12 352 330 321 302 260 271
192 136 107 91 114 116 103 96 74 303 110 124 123 112 115 114 121 137 154 260 251 260 260 255 280 303 268 318 46 61 119 308 287 287 301 328 328 326 321 311 262 275 292
80 92 96 90 83 77 69 69 13 208 104 62 57 108 111 124 167 189 217 230 253 249 261 258 244 260 260 260 155 156 161 184 192 232 246 303 321 318 317 302 288 295 280
92 100 99 96 85 86 92 99 98 360 37 2 66 98 181 193 232 218 223 241 242 249 255 260 258 256 256 261 255 344 344 323 319 337 314 283 278 269 269 285 288 286 276
95 93 92 97 109 122 167 178 111 134 224 247 216 256 237 202 284 281 251 226 245 242 298 285 254 260 315 40 46 45 7 339 321 316 303 305 278 273 275 275 277 279 278
107 104 111 131 162 160 192 130 121 162 182 193 194 221 259 273 279 273 295 23 226 314 310 268 344 72 91 66 32 35 1 328 292 280 264 272 266 262 265 270 276 276 270